Tiempo cada hora Abdul-Gazy

Hoy, 22 Octubre, Jueves

Tiempo Temperatura Precipitaciones Viento Presión Humedad
00:00 +9°C° 0 mm 2 mps 766 mmHg 46%
01:00 +9°C° 0 mm 2 mps 766 mmHg 46%
02:00 +9°C° 0 mm 2 mps 766 mmHg 45%
03:00 +9°C° 0 mm 2 mps 765 mmHg 47%
04:00 +9°C° 0 mm 2 mps 765 mmHg 48%
05:00 +9°C° 0 mm 2 mps 765 mmHg 49%
06:00 +8°C° 0 mm 2 mps 765 mmHg 50%
07:00 +10°C° 0 mm 2 mps 765 mmHg 47%
08:00 +12°C° 0 mm 2 mps 765 mmHg 44%
09:00 +13°C° 0 mm 2 mps 765 mmHg 42%
10:00 +15°C° 0 mm 2 mps 765 mmHg 40%
11:00 +16°C° 0 mm 2 mps 764 mmHg 39%
12:00 +17°C° 0 mm 2 mps 764 mmHg 38%
13:00 +19°C° 0 mm 1 mps 764 mmHg 37%
14:00 +19°C° 0 mm 1 mps 764 mmHg 36%
15:00 +20°C° 0 mm 1 mps 764 mmHg 35%
16:00 +18°C° 0 mm 1 mps 764 mmHg 39%
17:00 +16°C° 0 mm 1 mps 764 mmHg 43%
18:00 +15°C° 0 mm 1 mps 764 mmHg 47%
19:00 +14°C° 0 mm 2 mps 764 mmHg 53%
20:00 +13°C° 0 mm 2 mps 764 mmHg 59%
21:00 +12°C° 0 mm 2 mps 764 mmHg 65%
22:00 +12°C° 0 mm 2 mps 764 mmHg 68%
23:00 +10°C° 0 mm 2 mps 763 mmHg 72%

Mañana, 23 Octubre, Viernes

Tiempo Temperatura Precipitaciones Viento Presión Humedad
00:00 +10°C° 0 mm 2 mps 763 mmHg 75%
01:00 +10°C° 0 mm 2 mps 763 mmHg 73%
02:00 +11°C° 0 mm 1 mps 763 mmHg 71%
03:00 +11°C° 0 mm 1 mps 763 mmHg 69%
04:00 +10°C° 0 mm 2 mps 763 mmHg 63%
05:00 +12°C° 0 mm 2 mps 764 mmHg 57%
06:00 +12°C° 0 mm 2 mps 764 mmHg 51%
07:00 +14°C° 0 mm 2 mps 764 mmHg 49%
08:00 +14°C° 0 mm 3 mps 764 mmHg 47%
09:00 +16°C° 0 mm 3 mps 764 mmHg 45%
10:00 +18°C° 0 mm 3 mps 764 mmHg 41%
11:00 +19°C° 0 mm 3 mps 764 mmHg 38%
12:00 +20°C° 0 mm 3 mps 763 mmHg 34%
13:00 +21°C° 0 mm 3 mps 763 mmHg 31%
14:00 +22°C° 0 mm 3 mps 763 mmHg 29%
15:00 +23°C° 0 mm 2 mps 763 mmHg 27%
16:00 +20°C° 0 mm 2 mps 763 mmHg 32%
17:00 +18°C° 0 mm 1 mps 762 mmHg 37%
18:00 +15°C° 0 mm 1 mps 762 mmHg 42%
19:00 +15°C° 0 mm 1 mps 762 mmHg 42%
20:00 +16°C° 0 mm 2 mps 762 mmHg 41%
21:00 +16°C° 0 mm 2 mps 762 mmHg 41%
22:00 +16°C° 0 mm 2 mps 762 mmHg 41%
23:00 +15°C° 0 mm 2 mps 761 mmHg 42%

Pasado mañana, 24 Octubre, Sábado

Tiempo Temperatura Precipitaciones Viento Presión Humedad
00:00 +15°C° 0 mm 2 mps 761 mmHg 42%
01:00 +14°C° 0 mm 2 mps 760 mmHg 44%
02:00 +14°C° 0 mm 2 mps 760 mmHg 46%
03:00 +13°C° 0 mm 2 mps 760 mmHg 47%
04:00 +12°C° 0 mm 1 mps 760 mmHg 49%
05:00 +12°C° 0 mm 1 mps 760 mmHg 51%
06:00 +11°C° 0 mm 1 mps 760 mmHg 53%
07:00 +14°C° 0 mm 1 mps 760 mmHg 46%
08:00 +18°C° 0 mm 1 mps 760 mmHg 39%
09:00 +20°C° 0 mm 1 mps 760 mmHg 32%
10:00 +22°C° 0 mm 1 mps 760 mmHg 29%
11:00 +23°C° 0 mm 1 mps 760 mmHg 27%
12:00 +25°C° 0 mm 1 mps 759 mmHg 24%
13:00 +26°C° 0 mm 1 mps 759 mmHg 24%
14:00 +24°C° 0 mm 0 mps 759 mmHg 23%
15:00 +24°C° 0 mm 0 mps 759 mmHg 23%
16:00 +21°C° 0 mm 0 mps 759 mmHg 30%
17:00 +18°C° 0 mm 0 mps 759 mmHg 38%
18:00 +18°C° 0 mm 1 mps 759 mmHg 46%
19:00 +16°C° 0 mm 1 mps 759 mmHg 47%
20:00 +15°C° 0 mm 1 mps 759 mmHg 49%
21:00 +15°C° 0 mm 1 mps 759 mmHg 50%
22:00 +15°C° 0 mm 1 mps 759 mmHg 52%
23:00 +14°C° 0 mm 1 mps 758 mmHg 55%

, 25 Octubre, Domingo

Tiempo Temperatura Precipitaciones Viento Presión Humedad
00:00 +14°C° 0 mm 1 mps 758 mmHg 57%
01:00 +13°C° 0 mm 1 mps 758 mmHg 60%
02:00 +13°C° 0 mm 1 mps 758 mmHg 63%
03:00 +12°C° 0 mm 1 mps 758 mmHg 66%
04:00 +12°C° 0 mm 1 mps 758 mmHg 67%
05:00 +12°C° 0 mm 1 mps 758 mmHg 69%
06:00 +11°C° 0 mm 1 mps 758 mmHg 70%
07:00 +14°C° 0 mm 1 mps 758 mmHg 58%
08:00 +18°C° 0 mm 1 mps 758 mmHg 47%
09:00 +21°C° 0 mm 1 mps 758 mmHg 35%
10:00 +22°C° 0 mm 1 mps 758 mmHg 32%
11:00 +24°C° 0 mm 1 mps 758 mmHg 28%
12:00 +25°C° 0 mm 1 mps 758 mmHg 25%
13:00 +26°C° 0 mm 1 mps 758 mmHg 23%
14:00 +24°C° 0 mm 0 mps 758 mmHg 22%
15:00 +24°C° 0 mm 0 mps 757 mmHg 20%
16:00 +21°C° 0 mm 0 mps 758 mmHg 28%
17:00 +20°C° 0 mm 1 mps 758 mmHg 35%
18:00 +16°C° 0 mm 1 mps 758 mmHg 43%
19:00 +16°C° 0 mm 1 mps 758 mmHg 41%
20:00 +16°C° 0 mm 2 mps 758 mmHg 39%
21:00 +16°C° 0 mm 2 mps 759 mmHg 37%
22:00 +16°C° 0 mm 2 mps 759 mmHg 39%
23:00 +14°C° 0 mm 3 mps 759 mmHg 41%

25 Octubre, Domingo

Tiempo Temperatura Precipitaciones Viento Presión Humedad
00:00 +14°C° 0 mm 1 mps 758 mmHg 57%
01:00 +13°C° 0 mm 1 mps 758 mmHg 60%
02:00 +13°C° 0 mm 1 mps 758 mmHg 63%
03:00 +12°C° 0 mm 1 mps 758 mmHg 66%
04:00 +12°C° 0 mm 1 mps 758 mmHg 67%
05:00 +12°C° 0 mm 1 mps 758 mmHg 69%
06:00 +11°C° 0 mm 1 mps 758 mmHg 70%
07:00 +14°C° 0 mm 1 mps 758 mmHg 58%
08:00 +18°C° 0 mm 1 mps 758 mmHg 47%
09:00 +21°C° 0 mm 1 mps 758 mmHg 35%
10:00 +22°C° 0 mm 1 mps 758 mmHg 32%
11:00 +24°C° 0 mm 1 mps 758 mmHg 28%
12:00 +25°C° 0 mm 1 mps 758 mmHg 25%
13:00 +26°C° 0 mm 1 mps 758 mmHg 23%
14:00 +24°C° 0 mm 0 mps 758 mmHg 22%
15:00 +24°C° 0 mm 0 mps 757 mmHg 20%
16:00 +21°C° 0 mm 0 mps 758 mmHg 28%
17:00 +20°C° 0 mm 1 mps 758 mmHg 35%
18:00 +16°C° 0 mm 1 mps 758 mmHg 43%
19:00 +16°C° 0 mm 1 mps 758 mmHg 41%
20:00 +16°C° 0 mm 2 mps 758 mmHg 39%
21:00 +16°C° 0 mm 2 mps 759 mmHg 37%
22:00 +16°C° 0 mm 2 mps 759 mmHg 39%
23:00 +14°C° 0 mm 3 mps 759 mmHg 41%

26 Octubre, Lunes

Tiempo Temperatura Precipitaciones Viento Presión Humedad
00:00 +14°C° 0 mm 3 mps 759 mmHg 42%
01:00 +14°C° 0 mm 3 mps 759 mmHg 50%
02:00 +13°C° 0 mm 3 mps 759 mmHg 58%
03:00 +14°C° 0 mm 2 mps 760 mmHg 65%
04:00 +14°C° 0 mm 2 mps 760 mmHg 72%
05:00 +13°C° 0 mm 2 mps 760 mmHg 78%
06:00 +13°C° 0 mm 2 mps 760 mmHg 84%
07:00 +13°C° 0 mm 3 mps 761 mmHg 76%
08:00 +16°C° 0 mm 3 mps 761 mmHg 68%
09:00 +17°C° 0 mm 3 mps 762 mmHg 61%
10:00 +18°C° 0 mm 3 mps 762 mmHg 56%
11:00 +19°C° 0 mm 3 mps 762 mmHg 52%
12:00 +20°C° 0 mm 3 mps 762 mmHg 47%
13:00 +20°C° 0 mm 3 mps 762 mmHg 46%
14:00 +20°C° 0 mm 3 mps 762 mmHg 45%
15:00 +20°C° 0 mm 3 mps 762 mmHg 44%
16:00 +19°C° 0 mm 3 mps 762 mmHg 48%
17:00 +17°C° 0 mm 3 mps 762 mmHg 51%
18:00 +14°C° 0 mm 3 mps 762 mmHg 55%
19:00 +14°C° 0 mm 3 mps 763 mmHg 53%
20:00 +13°C° 0 mm 3 mps 763 mmHg 51%
21:00 +12°C° 0 mm 4 mps 763 mmHg 49%
22:00 +12°C° 0 mm 3 mps 763 mmHg 50%
23:00 +11°C° 0 mm 3 mps 764 mmHg 52%

27 Octubre, Martes

Tiempo Temperatura Precipitaciones Viento Presión Humedad
00:00 +10°C° 0 mm 3 mps 764 mmHg 54%
01:00 +10°C° 0 mm 3 mps 764 mmHg 56%
02:00 +9°C° 0 mm 3 mps 764 mmHg 59%
03:00 +9°C° 0 mm 3 mps 764 mmHg 62%
04:00 +9°C° 0 mm 3 mps 764 mmHg 64%
05:00 +8°C° 0 mm 3 mps 765 mmHg 66%
06:00 +8°C° 0 mm 3 mps 765 mmHg 68%
07:00 +9°C° 0 mm 3 mps 765 mmHg 64%
08:00 +11°C° 0 mm 4 mps 766 mmHg 59%
09:00 +12°C° 0 mm 5 mps 766 mmHg 54%
10:00 +13°C° 0 mm 5 mps 766 mmHg 49%
11:00 +15°C° 0 mm 5 mps 766 mmHg 44%
12:00 +16°C° 0 mm 6 mps 766 mmHg 40%
13:00 +16°C° 0 mm 6 mps 766 mmHg 40%
14:00 +16°C° 0 mm 6 mps 766 mmHg 41%
15:00 +16°C° 0 mm 7 mps 765 mmHg 41%
16:00 +15°C° 0 mm 6 mps 766 mmHg 50%
17:00 +13°C° 0 mm 6 mps 766 mmHg 58%
18:00 +10°C° 0 mm 6 mps 766 mmHg 67%
19:00 +10°C° 0 mm 6 mps 766 mmHg 71%
20:00 +9°C° 0 mm 6 mps 766 mmHg 76%
21:00 +9°C° 0 mm 6 mps 766 mmHg 81%
22:00 +8°C° 0 mm 6 mps 766 mmHg 81%
23:00 +8°C° 0 mm 6 mps 766 mmHg 82%
Mostrar más

Necesitamos Su Consentimiento

Meteoprog y nuestros Proveedores de Servicios pueden almacenar y acceder a sus datos personales como cookies, identificadores de dispositivo u otras tecnologías similares de su dispositivo y procesar dichos datos para personalizar contenido y anuncios, además de ofrecer funciones de redes sociales y analizar el tráfico.

  • Almacenar y/o acceder a información en su dispositivo

    Se puede almacenar o acceder a cookies, identificadores de dispositivo u otra información de su dispositivo para los fines anteriormente indicados.

  • Anuncios y contenido personalizados, medición de anuncios y contenido, percepciones del público, y desarrollo de productos

    Los anuncios y el contenido pueden personalizarse en base a su perfil. Se pueden añadir más datos para personalizar mejor los anuncios y contenidos. Se puede medir el rendimiento de los anuncios y contenidos. Se puede obtener la percepción sobre el público que ha visto los anuncios y contenidos. Dichos datos pueden usarse para desarrollar o mejorar la experiencia del usuario, sistemas y software.

Al hacer clic en ‘Estoy De Acuerdo’ usted permitirá el uso de las cookies, identificadores de dispositivo, balizas web u otras tecnologías similares indicadas. Su configuración puede cambiarse desde el navegador de su dispositivo.

Para ciertos fines, los intereses legítimos pueden ser considerados por encima del consentimiento. Puede leer más sobre ello en nuestra Política de Privacidad y Cookies.